Flag for Sweden Weather past 2 weeks in Linköping, Sweden

Now
46 °F

Fog.


Feels Like: 43 °F
Forecast: 41 / 49 °F
Wind: 7 mph from Southeast

Location: Linkoping / Saab

Current Time: Oct 21, 2014 at 11:27:07 AM

Latest Report: Oct 21, 2014 at 10:50 AM


Visibility: 2 mi

Pressure: 29.65 "Hg

Humidity: 100%

Dew point: 46 °F

Location of LinköpingLocation

Historic Weather in Linköping — Graph

°F

Linköping temperature yesterday

Maximum temperature yesterday: 55 °F (at 12:20 AM)
Minimum temperature yesterday: 48 °F (at 10:20 PM)
Average temperature yesterday: 53 °F

Past Weeks' High & Low Weather Summary

 TemperatureHumidityPressure
High61 °F (Oct 10, 2:20 PM)100% (Oct 7, 3:20 AM)30.45 "Hg (Oct 7, 3:20 AM)
Low39 °F (Oct 16, 10:50 PM)63% (Oct 10, 4:20 PM)29.36 "Hg (Oct 20, 6:50 AM)
Average49 °F91%29.85 "Hg
* Reported Oct 6 10:20 AM — Oct 21 10:20 AM, Linköping, Weather by CustomWeather, © 2014

Note: Actual official high and low records may vary slightly from our data, if they occured in-between our weather recording intervals... More about our weather records

Advertising

Linköping weather history for previous 24 hours

 ConditionsComfort  
Time TempWeatherWind HumidityBarometerVisibility
10:20 AM
Oct 21
45 °FFog.7 mph100%29.65 "Hg3 mi
9:50 AM45 °FFog.8 mph100%29.65 "Hg4 mi
9:20 AM45 °FFog.7 mph100%29.65 "Hg5 mi
8:50 AM45 °FLight rain. Low clouds.8 mph100%29.65 "Hg4 mi
8:20 AM45 °FDrizzle. Low clouds.8 mph100%29.65 "Hg3 mi
7:50 AM45 °FDrizzle. Low clouds.8 mph100%29.62 "Hg4 mi
7:20 AM45 °FLow clouds.8 mph100%29.62 "HgN/A
6:50 AM45 °FLow clouds.7 mph100%29.62 "HgN/A
6:20 AM45 °FLow clouds.9 mph100%29.62 "HgN/A
5:50 AM45 °FDrizzle. Low clouds.7 mph100%29.62 "HgN/A
5:20 AM45 °FLow clouds.7 mph100%29.62 "HgN/A
4:50 AM45 °FLow clouds.5 mph100%29.62 "Hg4 mi
4:20 AM45 °FLow clouds.7 mph100%29.62 "Hg3 mi
3:50 AM45 °FMostly cloudy.7 mph100%29.62 "HgN/A
3:20 AM46 °FLow clouds.7 mph100%29.62 "HgN/A
2:50 AM46 °FLow clouds.8 mph100%29.62 "Hg3 mi
2:20 AM46 °FFog.8 mph100%29.62 "Hg3 mi
1:50 AM46 °FFog.8 mph100%29.62 "Hg3 mi
1:20 AM46 °FLow clouds.7 mph100%29.62 "HgN/A
12:50 AM46 °FLow clouds.6 mph100%29.59 "HgN/A
12:20 AM48 °FPartly cloudy.5 mph94%29.59 "HgN/A
11:50 PM
Oct 20
48 °FLow clouds.7 mph94%29.59 "HgN/A
11:20 PM48 °FMostly cloudy.6 mph94%29.59 "HgN/A
10:50 PM48 °FMostly cloudy.6 mph100%29.59 "HgN/A
10:20 PM48 °FMostly cloudy.5 mph100%29.56 "HgN/A
9:50 PM50 °FPassing clouds.5 mph94%29.56 "HgN/A
9:20 PM50 °FMostly cloudy.6 mph94%29.56 "HgN/A
8:50 PM52 °FOvercast.5 mph94%29.53 "HgN/A
8:20 PM52 °FPartly cloudy.5 mph94%29.53 "HgN/A
7:50 PM52 °FPassing clouds.5 mph94%29.53 "HgN/A
7:20 PM52 °FOvercast.6 mph94%29.50 "HgN/A
6:50 PM52 °FPassing clouds.7 mph94%29.50 "HgN/A
6:20 PM54 °FMore clouds than sun.7 mph88%29.50 "HgN/A
5:50 PM54 °FScattered clouds.7 mph88%29.47 "HgN/A
5:20 PM54 °FScattered clouds.7 mph88%29.47 "HgN/A
4:50 PM54 °FPartly sunny.10 mph88%29.45 "HgN/A
4:20 PM55 °FPartly sunny.13 mph82%29.45 "HgN/A
3:50 PM55 °FCloudy.14 mph82%29.45 "HgN/A
3:20 PM55 °FPartly sunny.13 mph82%29.45 "HgN/A
2:50 PM55 °FBroken clouds.13 mph82%29.42 "HgN/A
2:20 PM54 °FPartly sunny.14 mph88%29.42 "HgN/A
1:50 PM54 °FOvercast.14 mph88%29.42 "HgN/A
1:20 PM54 °FOvercast.13 mph88%29.42 "HgN/A
12:50 PM54 °FOvercast.13 mph88%29.42 "HgN/A
12:20 PM54 °FBroken clouds.14 mph88%29.39 "HgN/A
11:50 AM54 °FDrizzle. Partly sunny.13 mph88%29.39 "HgN/A
11:20 AM52 °FDrizzle. Partly sunny.13 mph94%29.39 "HgN/A
Weather by CustomWeather, © 2014

See weather overviewHow to use our weather pages